Weather in Elykaevo

Russia / Kemerovo Oblast     55°18′03″N   86°15′25″E
temp.,
°C
wind,
m/s
gust,
m/s
humid.,
%
clouds,
%
prec.,
mm/h
press.,
hPa
HPBL,
m
20 may, fri
fri2001:00+17w71565100 5.8 1008752
04:00+13wsw513770 0.0 1011375
07:00+13sw411685 0.0 1013406
10:00+18wsw71240100 0.0 10132471
13:00+21wsw711355 0.0 10132971
16:00+21w6113133 0.0 10122873
19:00+20wnw474384 0.0 1012505
22:00+16s225476 0.1 101286
21 may, sat
sat2101:00+14sw375371 0.1 1012163
04:00+15w3850100 0.0 1011300
07:00+15sw51254100 0.0 1012552
10:00+17wsw61051100 0.0 10131341
13:00+20wsw693916 0.0 10131821
16:00+22wsw583716 0.0 10111777
19:00+22w36475 0.0 1010624
22:00+17se11615 0.0 101011
22 may, sun
sun2201:00+15sse22715 0.0 100919
04:00+14se227510 0.0 100713
07:00+16ese126862 0.0 100662
10:00+24ene474677 0.0 1004553
13:00+27e5630100 0.0 10031518
16:00+28e4528100 0.0 10021917
19:00+25ne3549100 0.0 1002159
22:00+20ene1262100 0.0 100443
23 may, mon
mon2301:00+18w226888 0.0 100621
04:00+17wsw71375100 0.0 1008556
07:00+15wnw71356100 0.3 1014821
10:00+14w5843100 0.0 1019660
13:00+15wsw4638100 0.0 10211190
16:00+17wsw3536100 0.0 10221454
19:00+18s45423 0.0 1021825
22:00+11se39615 0.0 1022151
24 may, tue
tue2401:00+9sse22606 0.0 102230
04:00+8ese1169100 0.0 102117
07:00+11ne116430 0.0 102165
10:00+18nne34420 0.0 1019645
13:00+22nne33283 0.0 10171206
16:00+24nne3425100 0.0 10161686
19:00+22nne363965 0.0 1016313
22:00+16nne3750100 0.0 101696